Home   Weather   Pointe-à-Pitre   Past weeks

Flag for Guadeloupe Past Weather in Pointe-à-Pitre, Guadeloupe — Yesterday and Last 2 Weeks

Now
77 °F

Rain. Fog.


Feels Like: 78 °F
Forecast: 75 / 83 °F
Wind: 6 mph from Southeast

Location: Le Raizet - Guadeloupe

Current Time: Dec 8, 2016 at 8:16:16 am

Latest Report: Dec 8, 2016 at 7:30 am


Visibility: 1 mi

Pressure: 29.98 "Hg

Humidity: 94%

Dew Point: 75 °F

Location of Pointe-à-PitreLocation

Past Weather in Pointe-à-Pitre — Graph

°F

Pointe-à-Pitre Temperature Yesterday

Maximum temperature yesterday: 86 °F (at 11:30 am)
Minimum temperature yesterday: 68 °F (at 4:30 am)
Average temperature yesterday: 77 °F

High & Low Weather Summary for the Past Weeks

 TemperatureHumidityPressure
High88 °F (Nov 25, 2:00 pm)100% (Nov 24, 1:00 am)30.07 "Hg (Nov 24, 1:00 am)
Low68 °F (Dec 7, 4:30 am)49% (Dec 6, 12:30 pm)29.71 "Hg (Nov 28, 3:30 pm)
Average78 °F83%29.92 "Hg
* Reported Nov 23 7:00 am — Dec 8 7:00 am, Pointe-à-Pitre, Weather by CustomWeather, © 2016

Note: Actual official high and low records may vary slightly from our data, if they occured in-between our weather recording intervals... More about our weather records

Advertising

Pointe-à-Pitre Weather History for the Previous 24 Hours

Scroll right to see more
 ConditionsComfort  
Time TempWeatherWind HumidityBarometerVisibility
7:00 am
Thu, Dec 8
77 °FThundershowers. Broken clouds.9 mph94%29.98 "HgN/A
6:30 am77 °FPartly sunny.5 mph94%29.95 "HgN/A
6:00 am77 °FPassing clouds.7 mph94%29.95 "HgN/A
5:30 am77 °FStrong thunderstorms. Fog.3 mph94%29.95 "Hg2 mi
5:00 am77 °FPassing clouds.7 mph94%29.95 "HgN/A
4:30 am77 °FHeavy rain. Passing clouds.3 mph94%29.95 "Hg6 mi
4:00 am79 °FLight rain. Partly cloudy.3 mph89%29.92 "HgN/A
3:30 am79 °FPassing clouds.6 mph89%29.92 "HgN/A
3:00 am77 °FPassing clouds.2 mph89%29.92 "HgN/A
2:30 am77 °FLight rain. Fog.6 mph89%29.95 "Hg2 mi
2:00 am79 °FMostly cloudy.3 mph79%29.95 "HgN/A
1:30 am75 °FMostly cloudy.5 mph89%29.95 "HgN/A
1:00 am73 °FMostly cloudy.2 mph94%29.98 "HgN/A
12:30 am73 °FPassing clouds.3 mph94%29.98 "HgN/A
12:00 am73 °FPartly cloudy.2 mph94%30.01 "HgN/A
11:30 pm
Wed, Dec 7
73 °FPassing clouds.3 mph94%30.01 "HgN/A
10:30 pm73 °FClear.1 mph94%30.01 "Hg10 mi
9:30 pm73 °FPassing clouds.1 mph94%30.01 "HgN/A
9:00 pm75 °FPassing clouds.2 mph83%30.01 "HgN/A
8:30 pm75 °FClear.2 mph83%30.01 "Hg10 mi
8:00 pm77 °FPassing clouds.2 mph79%30.01 "HgN/A
7:30 pm77 °FClear.2 mph79%30.01 "Hg10 mi
7:00 pm79 °FClear.5 mph74%30.01 "Hg10 mi
6:30 pm79 °FPassing clouds.5 mph79%29.98 "HgN/A
6:00 pm81 °FPassing clouds.6 mph74%29.98 "HgN/A
5:30 pm81 °FPassing clouds.8 mph74%29.98 "HgN/A
5:00 pm82 °FPassing clouds.12 mph70%29.95 "HgN/A
4:30 pm82 °FPassing clouds.14 mph70%29.95 "HgN/A
4:00 pm84 °FScattered clouds.15 mph66%29.95 "HgN/A
3:30 pm84 °FMostly cloudy.13 mph66%29.95 "HgN/A
3:00 pm84 °FPartly sunny.14 mph66%29.95 "HgN/A
2:30 pm84 °FPassing clouds.14 mph58%29.95 "HgN/A
2:00 pm86 °FPartly sunny.15 mph62%29.95 "HgN/A
1:30 pm84 °FPartly sunny.14 mph66%29.95 "HgN/A
1:00 pm84 °FScattered clouds.15 mph70%29.95 "HgN/A
12:30 pm84 °FScattered clouds.12 mph70%29.98 "HgN/A
12:00 pm84 °FPartly sunny.15 mph70%29.98 "HgN/A
11:30 am86 °FScattered clouds.16 mph66%30.01 "HgN/A
11:00 am84 °FScattered clouds.13 mph66%30.01 "HgN/A
10:30 am84 °FBroken clouds.14 mph70%30.04 "HgN/A
10:00 am84 °FBroken clouds.10 mph70%30.04 "HgN/A
9:30 am82 °FPassing clouds.10 mph70%30.04 "HgN/A
9:00 am84 °FPartly sunny.9 mph70%30.04 "HgN/A
8:30 am82 °FSunny.3 mph74%30.01 "Hg10 mi
8:00 am79 °FPassing clouds.No wind79%30.01 "HgN/A
Weather by CustomWeather, © 2016

See weather overviewHow to use our weather pages